Eilat, Israel

9:41 AM IDT on May 24, 2018 (GMT +0300)
Eilat

Weather History for LLET - January, 2014

Change the Weather History Date:

Sunday, January 19, 2014

  Actual Average Record
Temperature  
Mean Temperature 64 °F -  
Max Temperature 75 °F 69 °F 78 °F (2013)
Min Temperature 53 °F 52 °F 46 °F (1997)
Degree Days  
Heating Degree Days 1    
Growing Degree Days 14 (Base 50)    
Moisture  
Dew Point 42 °F    
Average Humidity 45    
Maximum Humidity 76    
Minimum Humidity 16    
Precipitation  
Precipitation 0.00 in 0.01 in - ()
Sea Level Pressure  
Sea Level Pressure 30.22 in    
Wind  
Wind Speed 8 mph ()    
Max Wind Speed 20 mph    
Max Gust Speed -    
Averages and records for this station are not official NWS values.
T = Trace of Precipitation, MM = Missing Value Source: Averaged Metar Reports

Daily Weather History Graph

Daily Weather History Graph

Search for Another Location

Airport or City:

Astronomy

Jan. 19, 2014 Rise Set
Actual Time 6:35 AM IST 5:06 PM IST
Civil Twilight 6:09 AM IST 5:32 PM IST
Nautical Twilight 5:40 AM IST 6:01 PM IST
Astronomical Twilight 5:12 AM IST 6:30 PM IST
Moon 8:07 PM IST (1/19) 8:10 AM IST (1/19)
Length of Visible Light 11h 22m
Length of Day
10h 31m
Waning Gibbous, 91% of the Moon is Illuminated
Jan 19
Waning Gibbous
Jan 24
Last Quarter
Jan 30
New
Feb 6
First Quarter
Feb 15
Full

Hourly Weather History & Observations

Time (IST) Temp. Dew Point Humidity Pressure Visibility Wind Dir Wind Speed Gust Speed Precip Events Conditions
2:00 AM 57 °F 43 °F 48% 30.24 in - NE 3.5 mph - -  
5:00 AM 54 °F 44 °F 61% 30.25 in - North 4.6 mph - -  
5:30 AM 51.8 °F 42.8 °F 71% 30.27 in - NE 8.1 mph - N/A   Clear
5:50 AM 53.6 °F 44.6 °F 72% 30.27 in - NE 9.2 mph - N/A   Clear
6:50 AM 51.8 °F 44.6 °F 76% 30.27 in - ENE 4.6 mph - N/A   Clear
7:50 AM 53.6 °F 44.6 °F 72% 30.27 in - ENE 6.9 mph - N/A   Clear
8:00 AM 55 °F 45 °F 60% 30.27 in - NE 4.6 mph - -  
8:50 AM 59.0 °F 44.6 °F 59% 30.27 in - ENE 8.1 mph - N/A   Clear
9:50 AM 62.6 °F 46.4 °F 55% 30.30 in - NE 16.1 mph - N/A   Clear
10:50 AM 66.2 °F 44.6 °F 46% 30.27 in - NE 19.6 mph - N/A   Clear
11:00 AM 67 °F 44 °F 33% 30.24 in - NNE 9.2 mph - -  
11:50 AM 68.0 °F 44.6 °F 43% 30.21 in - NE 13.8 mph - N/A   Clear
12:50 PM 71.6 °F 41.0 °F 33% 30.18 in - ENE 9.2 mph - N/A   Clear
1:50 PM 73.4 °F 41.0 °F 31% 30.15 in - ENE 8.1 mph - N/A   Clear
2:00 PM 75 °F 38 °F 16% 30.15 in - NE 4.6 mph - -  
2:50 PM 75.2 °F 39.2 °F 27% 30.15 in - NE 8.1 mph - N/A   Clear
3:50 PM 73.4 °F 39.2 °F 29% 30.15 in - NE 13.8 mph - N/A   Clear
4:50 PM 69.8 °F 39.2 °F 33% 30.18 in - NE 18.4 mph - N/A   Clear
5:00 PM 69 °F 38 °F 21% 30.16 in - NNE 8.1 mph - -  
5:50 PM 66.2 °F 37.4 °F 35% 30.18 in - NE 18.4 mph - N/A   Clear
6:50 PM 64.4 °F 39.2 °F 40% 30.18 in - NE 13.8 mph - N/A   Clear
7:50 PM 62.6 °F 39.2 °F 42% 30.21 in - NE 9.2 mph - N/A   Clear
8:00 PM 62 °F 39 °F 31% 30.19 in - NNE 4.6 mph - -  
8:50 PM 62.6 °F 37.4 °F 39% 30.21 in - NE 16.1 mph - N/A   Clear
9:50 PM 60.8 °F 41.0 °F 48% 30.21 in - NE 12.7 mph - N/A   Clear
10:50 PM 59.0 °F 41.0 °F 51% 30.21 in - NNE 10.4 mph - N/A   Clear
11:00 PM 59 °F 40 °F 39% 30.19 in - North 5.8 mph - -